SCP
0 0 0 0 0 0 0 0 0 0 0 0 0 0 0 0 0 0 0 0 0 0
0 0 0 0 0 0 0 0 0 0 0 0 0 0 0 0 0 0 0 0 0 0
0 0 0 0 0 0 0 0 0 0 0 0 0 0 0 0 0 0 0 0 0 0
0 0 0 0 0 0 0 0 0 0 0 0 0 0 0 0 0 0 0 0 0 0
0 0 0 0 0 0 0 0 0 0 0 0 0 0 0 0 0 0 0 0 0 0
0 0 0 0 0 0 0 0 0 0 0 0 0 0 0 0 0 0 0 0 0 0
0 0 0 0 0 0 0 0 0 0 0 0 0 0 0 0 0 0 0 0 0 0
0 0 0 0 0 0 0 0 0 0 0 0 0 0 0 0 0 0 0 0 0 0
0 0 0 0 0 0 0 0 0 0 0 0 0 0 0 0 0 0 0 0 0 0
0 0 0 0 0 0 0 0 0 0 0 0 0 0 0 0 0 0 0 0 0 0
0 0 0 0 0 0 0 0 0 0 0 0 0 0 0 0 0 0 0 0 0 0
0 0 0 0 0 0 0 0 0 0 0 0 0 0 0 0 0 0 0 0 0 0
0 0 0 0 0 0 0 0 0 0 0 0 0 0 0 0 0 0 0 0 0 0
0 0 0 0 0 0 0 0 0 0 0 0 0 0 0 0 0 0 0 0 0 0
Wind_Speed_500mb
41 49 48 54 44 46 80 76 65 60 46 46 52 66 65 68 76 66 75 81 92 92
42 50 46 50 45 47 39 32 50 50 52 49 48 48 53 59 66 67 76 78 86 88
32 35 36 41 51 49 39 30 29 29 33 42 45 53 53 60 62 71 75 81 78 71
32 35 34 32 31 41 20 17 24 34 41 50 55 53 52 52 57 66 64 66 72 71
34 38 36 35 40 34 32 31 42 43 41 45 46 47 45 42 42 46 50 51 44 48
30 34 35 34 32 33 36 41 34 28 26 21 16 13 10 7 5 3 2 5 5 12
32 36 35 35 35 30 26 26 24 24 25 25 27 24 24 24 28 36 40 39 35 31
39 39 44 44 47 47 48 51 51 51 51 50 44 44 42 42 36 31 30 28 25 23
58 58 59 65 65 64 59 53 48 44 39 38 42 38 32 29 26 27 30 28 24 23
64 72 61 60 57 57 52 46 42 41 38 38 37 32 29 24 21 18 21 23 23 22
61 59 58 53 49 48 43 40 39 38 37 37 39 32 30 25 25 24 26 25 25 24
59 56 53 53 49 45 39 39 39 38 34 33 36 30 29 24 23 23 23 21 20 19
47 45 47 44 41 38 35 36 34 34 32 29 28 25 22 18 18 15 15 13 11 9
37 36 34 35 34 30 29 28 26 26 24 21 20 18 15 11 8 8 7 5 4 4
Wind_Direction_500mb
249 246 252 240 250 268 235 246 244 235 230 242 242 247 255 249 240 255 254 257 254 253
248 246 249 239 259 245 228 228 248 245 242 239 247 251 254 253 252 261 269 268 261 264
223 231 241 241 247 246 244 242 230 256 243 254 244 253 263 262 268 267 268 263 264 266
213 223 226 208 192 185 195 200 218 244 241 248 250 264 267 266 271 256 250 252 251 257
210 207 203 223 219 214 197 189 257 237 249 252 266 261 261 267 263 263 262 258 260 266
190 183 175 184 185 203 206 211 214 221 237 242 238 237 232 252 250 197 91 68 89 101
154 156 150 153 148 152 150 147 143 139 132 115 103 95 89 91 96 96 95 92 89 87
133 136 129 125 122 120 122 116 113 112 108 104 100 94 96 100 101 91 92 93 90 82
110 109 110 111 110 110 106 103 104 103 101 102 98 93 92 93 96 94 94 91 87 89
99 99 98 92 95 95 94 95 96 98 101 101 100 102 98 100 99 95 89 89 89 87
91 90 93 94 92 95 97 98 101 100 101 105 99 94 89 88 91 93 96 95 90 87
86 87 86 89 92 93 95 98 96 94 94 95 95 92 89 84 89 94 93 90 90 84
81 84 89 90 90 92 96 97 99 101 99 95 97 95 91 89 85 84 90 90 84 87
84 88 89 92 95 97 100 102 103 99 99 102 101 101 95 95 90 92 85 84 72 36
Wind_Speed_850mb
41 49 48 54 44 46 80 76 65 60 46 46 52 66 65 68 76 66 75 81 92 92
42 50 46 50 45 47 39 32 50 50 52 49 48 48 53 59 66 67 76 78 86 88
32 35 36 41 51 49 39 30 29 29 33 42 45 53 53 60 62 71 75 81 78 71
32 35 34 32 31 41 20 17 24 34 41 50 55 53 52 52 57 66 64 66 72 71
34 38 36 35 40 34 32 31 42 43 41 45 46 47 45 42 42 46 50 51 44 48
30 34 35 34 32 33 36 41 34 28 26 21 16 13 10 7 5 3 2 5 5 12
32 36 35 35 35 30 26 26 24 24 25 25 27 24 24 24 28 36 40 39 35 31
39 39 44 44 47 47 48 51 51 51 51 50 44 44 42 42 36 31 30 28 25 23
58 58 59 65 65 64 59 53 48 44 39 38 42 38 32 29 26 27 30 28 24 23
64 72 61 60 57 57 52 46 42 41 38 38 37 32 29 24 21 18 21 23 23 22
61 59 58 53 49 48 43 40 39 38 37 37 39 32 30 25 25 24 26 25 25 24
59 56 53 53 49 45 39 39 39 38 34 33 36 30 29 24 23 23 23 21 20 19
47 45 47 44 41 38 35 36 34 34 32 29 28 25 22 18 18 15 15 13 11 9
37 36 34 35 34 30 29 28 26 26 24 21 20 18 15 11 8 8 7 5 4 4
Wind_Direction_850mb
249 246 252 240 250 268 235 246 244 235 230 242 242 247 255 249 240 255 254 257 254 253
248 246 249 239 259 245 228 228 248 245 242 239 247 251 254 253 252 261 269 268 261 264
223 231 241 241 247 246 244 242 230 256 243 254 244 253 263 262 268 267 268 263 264 266
213 223 226 208 192 185 195 200 218 244 241 248 250 264 267 266 271 256 250 252 251 257
210 207 203 223 219 214 197 189 257 237 249 252 266 261 261 267 263 263 262 258 260 266
190 183 175 184 185 203 206 211 214 221 237 242 238 237 232 252 250 197 91 68 89 101
154 156 150 153 148 152 150 147 143 139 132 115 103 95 89 91 96 96 95 92 89 87
133 136 129 125 122 120 122 116 113 112 108 104 100 94 96 100 101 91 92 93 90 82
110 109 110 111 110 110 106 103 104 103 101 102 98 93 92 93 96 94 94 91 87 89
99 99 98 92 95 95 94 95 96 98 101 101 100 102 98 100 99 95 89 89 89 87
91 90 93 94 92 95 97 98 101 100 101 105 99 94 89 88 91 93 96 95 90 87
86 87 86 89 92 93 95 98 96 94 94 95 95 92 89 84 89 94 93 90 90 84
81 84 89 90 90 92 96 97 99 101 99 95 97 95 91 89 85 84 90 90 84 87
84 88 89 92 95 97 100 102 103 99 99 102 101 101 95 95 90 92 85 84 72 36